Showing default

SEASAT 1, 10967

Orbit data source: Space-Track

SEASAT 1, 10967 is a payload satellite owned by JPL (US) in LEO that was launched on Tue, 27 Jun 1978 UTC via an ATLAS F/AGENA D launch vehicle from the Air Force Western Test Range (AFWTR). Payload-class satellites include a variety of spacecraft equipped with specific instruments for various scientific and technological missions. These include communications satellites like Starlink; space stations such as the ISS; scientific satellites like the Hubble; Earth observation satellites from companies like Planet Labs, Umbra, and HawkEye 360; GPS; miniature CubeSats for education and research; and military/defense satellites.

Loading next visibility...
Identifier
10967, 1978-064A
Orbit
LEO
Country
Flag of USUS
Related business
Manufacturer
LMSC
Mission
Non-operational spacecraft
Bus & Motor
SEASAT, Unknown motor
Mass
2,290 kg wet, ~1,290 kg dry
Launch date (UTC)
1978-06-27 (48 years ago)
Launch vehicle
ATLAS F/AGENA D
Launch site
Air Force Western Test Range (AFWTR)
Object type
Payload
Rocket body
Debris
Shape & HBR
Unknown
Radar Cross Section
Large (>1 m²)

Expand to show TLE details & history
Last TLE update: 2 days ago

TLE from 2 days ago
0 SEASAT 1
1 10967U 78064A   26171.42130973  .00000153  00000-0  81052-4 0  9993
2 10967 108.0177 341.0778 0001736 240.3380 119.7593 14.46245232521361
Epoch: 2026-06-20T10:06Z
TLE epoch observation values (Epoch: 2026-06-20T10:06:41.160Z)
Latitude
-0.00002°
Longitude
-79.22987°
Altitude
741.051 km
Speed
7.484 km/s
True Right ascension
22h 44m 18s
True Declination
0° 00' 00"
Sunlit
Object was in daylight at epoch
Visualization orbit readout
Latitude
Unknown
Longitude
Unknown
Altitude
Unknown
Speed
Unknown
Apparent Right ascension
Unknown
Apparent Declination
Unknown
Sunlit
N/A
Visualization observer readout
Local Sidereal Time
23:20:13
Azimuth
Unknown
Elevation
Unknown
Doppler factor
Unknown
Orbital elements
Apogee altitude
736.972 km
Perigee altitude
734.502 km
Semi-major axis
7,113.874 km
Eccentricity
0.00017
Inclination
108.0177°
RAAN
341.0778°
Arg. of periapsis
240.338°
True anomaly
119.77657°
Mean anomaly
119.7593°
Eccentric anomaly
119.76793°
Mean motion
3.61729 °/min
Orbital period
99.52 mins
BSTAR
0.000081052
Loading maneuver chart data...
Computing Atmospheric mass density...

Documentation

Showing up to 5 results
|